Location: Home AU
(51.1382°N, 13.5726°E)
Time: 06:58:58
(UTC+01:00)

ISS - Pass Details

Date: 05 January 2018
Orbit: 402 x 407 km, 51.6° (Epoch: 18 January)

Event Time Altitude Azimuth Distance (km) Brightness Sun altitude
Exits shadow 06:03:41 70° 285° (WNW) 437 -4.0 -18.5°
Maximum altitude 06:04:00 83° 352° (N) 416 -3.9 -18.5°
Drops below altitude 10° 06:07:19 10° 83° (E) 1,471 0.1 -18.0°
Sets 06:09:24 0° 84° (E) 2,333 1.4 -17.7°
